Weather History for KDYB - March, 2013

Change the Weather History Date:

Thursday, March 21, 2013

  Actual Average (KCHS) Record (KCHS)
Temperature  
Mean Temperature 47 °F 59 °F  
Max Temperature 59 °F 71 °F 87 °F (1982)
Min Temperature 35 °F 48 °F 29 °F (1981)
Degree Days  
Heating Degree Days 18 7  
Month to date heating degree days 184  
Since 1 July heating degree days 1820  
Cooling Degree Days 0 1  
Month to date cooling degree days 19  
Year to date cooling degree days 26  
Moisture  
Dew Point 27 °F    
Average Humidity 52    
Maximum Humidity 100    
Minimum Humidity 20    
Precipitation  
Precipitation 0.00 in 0.12 in 1.02 in (1943)
Month to date precipitation 2.50  
Year to date precipitation 9.17  
Sea Level Pressure  
Sea Level Pressure 29.86 in    
Wind  
Wind Speed 6 mph (West)    
Max Wind Speed 16 mph    
Max Gust Speed 25 mph    
Visibility 10 miles    
Events      
T = Trace of Precipitation, MM = Missing Value Source: NWS Daily Summary

Daily Weather History Graph

Daily Weather History Graph

Search for Another Location

Airport or City:

Trip Planner

Search our weather history database for the weather conditions in past years. The results will help you decide how hot, cold, wet, or windy it might be!

Date:

Astronomy

Mar. 21, 2013 Rise Set
Actual Time 7:23 AM EDT 7:33 PM EDT
Civil Twilight 6:58 AM EDT 7:58 PM EDT
Nautical Twilight 6:29 AM EDT 8:27 PM EDT
Astronomical Twilight 6:00 AM EDT 8:56 PM EDT
Moon 2:16 PM EDT (3/21) 3:28 AM EDT (3/21)
Length of Visible Light 12h 59m
Length of Day
12h 10m
Waxing Gibbous, 68% of the Moon is Illuminated
Mar 21
Waxing Gibbous
Mar 27
Full
Apr 3
Last Quarter
Apr 10
New
Apr 18
First Quarter

Hourly Weather History & Observations

Time (EDT) Temp. Windchill Dew Point Humidity Pressure Visibility Wind Dir Wind Speed Gust Speed Precip Events Conditions
12:15 AM 41.0 °F - 37.4 °F 87% 29.84 in 10.0 mi Calm Calm - N/A   Clear
12:35 AM 41.0 °F - 37.4 °F 87% 29.84 in 10.0 mi Calm Calm - N/A   Clear
12:55 AM 37.4 °F 34.9 °F 37.4 °F 100% 29.83 in 10.0 mi SSW 3.5 mph - N/A   Clear
1:15 AM 37.4 °F 34.9 °F 37.4 °F 100% 29.83 in 10.0 mi SW 3.5 mph - N/A   Clear
1:35 AM 37.4 °F 34.9 °F 37.4 °F 100% 29.83 in 10.0 mi WSW 3.5 mph - N/A   Clear
1:55 AM 39.2 °F 37.0 °F 37.4 °F 93% 29.82 in 10.0 mi WSW 3.5 mph - N/A   Clear
2:15 AM 42.8 °F 39.3 °F 33.8 °F 70% 29.82 in 10.0 mi West 5.8 mph - N/A   Clear
2:35 AM 42.8 °F 40.1 °F 33.8 °F 70% 29.82 in 10.0 mi West 4.6 mph - N/A   Clear
2:55 AM 39.2 °F 37.0 °F 35.6 °F 87% 29.81 in 10.0 mi WSW 3.5 mph - N/A   Clear
3:15 AM 41.0 °F 38.0 °F 33.8 °F 76% 29.80 in 10.0 mi West 4.6 mph - N/A   Clear
3:35 AM 44.6 °F 41.4 °F 32.0 °F 61% 29.81 in 10.0 mi West 5.8 mph - N/A   Clear
4:15 AM 44.6 °F 41.4 °F 30.2 °F 57% 29.82 in 10.0 mi West 5.8 mph - N/A   Clear
4:35 AM 42.8 °F 39.3 °F 30.2 °F 61% 29.82 in 10.0 mi West 5.8 mph - N/A   Clear
4:55 AM 42.8 °F 39.3 °F 30.2 °F 61% 29.82 in 10.0 mi West 5.8 mph - N/A   Clear
5:15 AM 42.8 °F 39.3 °F 30.2 °F 61% 29.83 in 10.0 mi WNW 5.8 mph - N/A   Clear
5:55 AM 42.8 °F 41.1 °F 30.2 °F 61% 29.84 in 10.0 mi West 3.5 mph - N/A   Clear
6:15 AM 39.2 °F 35.9 °F 32.0 °F 75% 29.85 in 10.0 mi West 4.6 mph - N/A   Clear
6:55 AM 37.4 °F 32.8 °F 32.0 °F 81% 29.86 in 10.0 mi West 5.8 mph - N/A   Clear
7:15 AM 39.2 °F 35.0 °F 30.2 °F 70% 29.86 in 10.0 mi West 5.8 mph - N/A   Clear
7:35 AM 39.2 °F 35.9 °F 30.2 °F 70% 29.87 in 10.0 mi West 4.6 mph - N/A   Clear
8:55 AM 42.8 °F 39.3 °F 28.4 °F 57% 29.88 in 10.0 mi West 5.8 mph - N/A   Clear
9:15 AM 44.6 °F 40.7 °F 26.6 °F 49% 29.88 in 10.0 mi West 6.9 mph 16.1 mph N/A   Clear
9:35 AM 44.6 °F 39.7 °F 24.8 °F 46% 29.88 in 10.0 mi NW 9.2 mph 17.3 mph N/A   Clear
9:55 AM 46.4 °F 41.5 °F 24.8 °F 43% 29.87 in 10.0 mi NNW 10.4 mph 16.1 mph N/A   Clear
10:15 AM 46.4 °F 40.4 °F 26.6 °F 46% 29.88 in 10.0 mi WNW 13.8 mph 19.6 mph N/A   Clear
10:35 AM 46.4 °F 41.5 °F 26.6 °F 46% 29.88 in 10.0 mi West 10.4 mph - N/A   Clear
10:55 AM 48.2 °F - 26.6 °F 43% 29.87 in 10.0 mi NW 10.4 mph 17.3 mph N/A   Clear
11:15 AM 48.2 °F - 24.8 °F 40% 29.87 in 10.0 mi NW 9.2 mph 17.3 mph N/A   Clear
11:35 AM 50.0 °F - 26.6 °F 40% 29.87 in 10.0 mi NW 13.8 mph 17.3 mph N/A   Clear
11:55 AM 50.0 °F - 26.6 °F 40% 29.87 in 10.0 mi West 10.4 mph 21.9 mph N/A   Clear
12:15 PM 51.8 °F - 26.6 °F 38% 29.87 in 10.0 mi West 9.2 mph 21.9 mph N/A   Clear
12:35 PM 51.8 °F - 24.8 °F 35% 29.86 in 10.0 mi WSW 13.8 mph 23.0 mph N/A   Clear
12:55 PM 51.8 °F - 23.0 °F 33% 29.86 in 10.0 mi West 11.5 mph 21.9 mph N/A   Clear
1:15 PM 51.8 °F - 23.0 °F 33% 29.85 in 10.0 mi West 10.4 mph 25.3 mph N/A   Clear
1:35 PM 53.6 °F - 21.2 °F 28% 29.84 in 10.0 mi West 15.0 mph 20.7 mph N/A   Clear
1:55 PM 53.6 °F - 19.4 °F 26% 29.84 in 10.0 mi West 15.0 mph 19.6 mph N/A   Clear
2:15 PM 55.4 °F - 19.4 °F 25% 29.83 in 10.0 mi West 11.5 mph 18.4 mph N/A   Clear
2:35 PM 55.4 °F - 21.2 °F 26% 29.82 in 10.0 mi West 13.8 mph 19.6 mph N/A   Clear
2:55 PM 57.2 °F - 23.0 °F 27% 29.81 in 10.0 mi WSW 12.7 mph 18.4 mph N/A   Clear
3:15 PM 57.2 °F - 21.2 °F 25% 29.81 in 10.0 mi West 13.8 mph 23.0 mph N/A   Clear
3:35 PM 59.0 °F - 21.2 °F 23% 29.81 in 10.0 mi West 11.5 mph 19.6 mph N/A   Clear
4:35 PM 59.0 °F - 19.4 °F 22% 29.81 in 10.0 mi West 15.0 mph 25.3 mph N/A   Clear
4:55 PM 59.0 °F - 19.4 °F 22% 29.81 in 10.0 mi WSW 10.4 mph 17.3 mph N/A   Clear
5:15 PM 59.0 °F - 17.6 °F 20% 29.81 in 10.0 mi WNW 16.1 mph 21.9 mph N/A   Clear
5:35 PM 57.2 °F - 17.6 °F 21% 29.81 in 10.0 mi West 13.8 mph 19.6 mph N/A   Clear
5:55 PM 55.4 °F - 17.6 °F 23% 29.82 in 10.0 mi WNW 12.7 mph 21.9 mph N/A   Clear
6:15 PM 55.4 °F - 17.6 °F 23% 29.83 in 10.0 mi WNW 13.8 mph 20.7 mph N/A   Clear
6:35 PM 55.4 °F - 17.6 °F 23% 29.83 in 10.0 mi WNW 11.5 mph 17.3 mph N/A   Clear
6:55 PM 55.4 °F - 17.6 °F 23% 29.84 in 10.0 mi WNW 8.1 mph - N/A   Clear
7:15 PM 53.6 °F - 17.6 °F 24% 29.86 in 10.0 mi WNW 5.8 mph - N/A   Clear
7:35 PM 51.8 °F - 19.4 °F 28% 29.86 in 10.0 mi WNW 3.5 mph - N/A   Clear
8:55 PM 44.6 °F - 24.8 °F 46% 29.90 in 10.0 mi Calm Calm - N/A   Clear
9:15 PM 42.8 °F 41.1 °F 26.6 °F 53% 29.91 in 10.0 mi WNW 3.5 mph - N/A   Clear
9:35 PM 41.0 °F - 26.6 °F 57% 29.91 in 10.0 mi Calm Calm - N/A   Clear
9:55 PM 41.0 °F - 26.6 °F 57% 29.92 in 10.0 mi Calm Calm - N/A   Clear
10:15 PM 39.2 °F - 28.4 °F 65% 29.93 in 10.0 mi Calm Calm - N/A   Clear
10:35 PM 39.2 °F - 28.4 °F 65% 29.94 in 10.0 mi Calm Calm - N/A   Clear
10:55 PM 37.4 °F - 28.4 °F 70% 29.93 in 10.0 mi Calm Calm - N/A   Clear
11:15 PM 37.4 °F - 30.2 °F 75% 29.95 in 10.0 mi Calm Calm - N/A   Clear
11:35 PM 35.6 °F - 28.4 °F 75% 29.96 in 10.0 mi Calm Calm - N/A   Clear
11:55 PM 35.6 °F - 30.2 °F 81% 29.96 in 10.0 mi Calm Calm - N/A   Clear